FREGAT DEB, 45640

Orbit data source: Space-Track

FREGAT DEB, 45640 is space debris in LEO originally from a launch on Mon, 18 Jul 2011 UTC launched from the Tyuratam Missile And Space Complex (TTMTR). Debris objects in space refer to the collection of defunct objects orbiting the Earth. Examples of debris include non-operational satellites, rocket bodies, and fragments generated from explosions, collisions, or faulty payload assembly.

Loading next visibility...
Identifier
45640, 2011-037AG
Orbit
LEO
Country
Flag of CISCIS
Related business
Manufacturer
Lavochkin
Mission
Spacecraft
Bus & Motor
Unknown
Mass
Unknown
Launch date (UTC)
2011-07-18 (14 years ago)
Launch vehicle
Unknown
Launch site
Tyuratam Missile And Space Complex (TTMTR)
Object type
Payload
Rocket body
Debris
Shape & HBR
Unknown
Radar Cross Section
Small (<0.1 m²)

Expand to show TLE details & history
Last TLE update: 9 months ago

TLE from 9 months ago
0 FREGAT DEB
1 45640U 11037AG  24330.85900094 -.00000134  00000-0  00000-0 0  9997
2 45640  50.8815 206.6247 0994687  76.5920 294.3727 12.71158316 58245
Epoch: 2024-11-25T20:36Z
TLE epoch observation values (Epoch: 2024-11-25T20:36:57.681Z)
Latitude
0.00006°
Longitude
-167.89288°
Altitude
1,126.858 km
Speed
7.407 km/s
True Right ascension
13h 46m 29s
True Declination
0° 00' 00"
Sunlit
Object was in daylight at epoch
Visualization orbit readout
Latitude
Unknown
Longitude
Unknown
Altitude
Unknown
Speed
Unknown
Apparent Right ascension
Unknown
Apparent Declination
Unknown
Sunlit
N/A
Visualization observer readout
Local Sidereal Time
02:47:45
Azimuth
Unknown
Elevation
Unknown
Doppler factor
Unknown
Orbital elements
Apogee altitude
2,149.262 km
Perigee altitude
606.318 km
Semi-major axis
7,755.927 km
Eccentricity
0.09947
Inclination
50.8815°
RAAN
206.6247°
Arg. of periapsis
76.592°
True anomaly
283.49609°
Mean anomaly
294.3727°
Eccentric anomaly
288.98353°
Mean motion
3.17755 °/min
Orbital period
113.29 mins
BSTAR
0
Loading maneuver chart data...
Computing Atmospheric mass density...
Loading historical data...
Loading historical data...
Loading historical data...
Loading historical data...
Loading historical data...
Loading historical data...
Loading historical data...

Documentation

Showing up to 5 results
|